This demonstration page uses our WeatherBlox Daily Observations layout. Learn more.

Left ArrowRight Arrow

Hourly Observations for July 2, 2022

Temp ( °F °C ) Dew Point ( °F °C ) Humidity (%) Winds ( mph kmh ) Pressure ( in mb ) Visibility ( mi km ) Precip ( " mm )
12:54 am 00:54 Clear 64 17.8 60 15.6 87 87 N 8 13 30.01 1016 10 16 0.00 0.00
1:54 am 01:54 Clear 63 17.2 59 15 87 87 NNE 5 7 30.00 1016 10 16 0.00 0.00
2:54 am 02:54 Mostly Cloudy 63 17.2 60 15.6 90 90 NNE 7 11 30.00 1016 10 16 0.00 0.00
3:54 am 03:54 Mostly Clear 66 18.9 61 16.1 84 84 E 6 9 29.98 1015 10 16 0.00 0.00
4:54 am 04:54 Cloudy 67 19.4 61 16.1 81 81 S 6 9 30.00 1016 10 16 0.00 0.00
5:54 am 05:54 Clear 67 19.4 61 16.1 81 81 S 6 9 29.98 1015 10 16 0.00 0.00
6:54 am 06:54 Mostly Cloudy 67 19.4 62 16.7 84 84 SSE 8 13 29.98 1015 10 16 0.00 0.00
7:06 am 07:06 Mostly Cloudy 67 19.4 63 17.2 87 87 S 6 9 29.99 1016 10 16 0.00 0.00
7:34 am 07:34 Mostly Cloudy 68 20 64 17.8 87 87 Calm 30.01 1016 10 16 0.00 0.00
7:54 am 07:54 Cloudy 68 20 64 17.8 87 87 SSE 6 9 30.01 1016 10 16 0.00 0.00
8:54 am 08:54 Cloudy with Light Rain 68 20 66 18.9 93 93 SE 5 7 30.01 1016 5 8 0.02 0.51
9:45 am 09:45 Cloudy with Light Rain 71 21.7 67 19.4 87 87 E 6 9 30.00 1016 10 16 0.01 0.25
9:54 am 09:54 Mostly Cloudy 71 21.7 67 19.4 87 87 ESE 3 6 30.01 1016 10 16 0.01 0.25
10:38 am 10:38 Cloudy 72 22.2 67 19.4 84 84 E 8 13 30.00 1016 10 16 0.00 0.00
10:54 am 10:54 Cloudy 71 21.7 67 19.4 87 87 E 9 15 30.01 1016 10 16 0.00 0.00
11:11 am 11:11 Mostly Cloudy 73 22.8 68 20 84 84 E 7 11 30.00 1016 10 16 0.00 0.00
11:21 am 11:21 Mostly Cloudy 74 23.3 67 19.4 79 79 E 7 11 29.99 1016 10 16 0.00 0.00
11:28 am 11:28 Mostly Cloudy 74 23.3 68 20 82 82 E 6 9 29.99 1016 10 16 0.00 0.00
11:36 am 11:36 Partly Cloudy 75 23.9 68 20 79 79 ESE 6 9 30.00 1016 10 16 0.00 0.00
11:54 am 11:54 Partly Cloudy 76 24.4 68 20 77 77 E 6 9 30.02 1017 10 16 0.00 0.00
12:54 pm 12:54 Partly Cloudy 78 25.6 67 19.4 69 69 SSE 9 15 30.00 1016 10 16 0.00 0.00
1:54 pm 13:54 Partly Cloudy 81 27.2 67 19.4 62 62 SSE 12 19 30.00 1016 10 16 0.00 0.00
2:54 pm 14:54 Mostly Sunny 82 27.8 66 18.9 58 58 ESE 7 11 29.98 1015 10 16 0.00 0.00
3:54 pm 15:54 Mostly Cloudy 83 28.3 66 18.9 57 57 undefined N/A 29.98 1015 10 16 0.00 0.00
4:54 pm 16:54 Cloudy 82 27.8 66 18.9 58 58 SE 5 7 29.98 1015 10 16 0.00 0.00
5:54 pm 17:54 Mostly Sunny 83 28.3 67 19.4 59 59 S 7 11 29.96 1015 10 16 0.00 0.00
6:54 pm 18:54 Partly Cloudy 83 28.3 66 18.9 57 57 SSE 5 7 29.95 1014 10 16 0.00 0.00
7:54 pm 19:54 Partly Cloudy 81 27.2 67 19.4 62 62 SE 8 13 29.95 1014 10 16 0.00 0.00
8:54 pm 20:54 Mostly Sunny 79 26.1 66 18.9 65 65 SE 9 15 29.96 1015 10 16 0.00 0.00
9:54 pm 21:54 Partly Cloudy 77 25 67 19.4 71 71 SSE 10 17 29.98 1015 10 16 0.00 0.00
10:54 pm 22:54 Clear 75 23.9 67 19.4 76 76 SSE 9 15 30.00 1016 10 16 0.00 0.00
11:54 pm 23:54 Clear 73 22.8 67 19.4 81 81 SSE 7 11 29.99 1016 10 16 0.00 0.00

Powered by AerisWeather